Location: Chattahoochee River National Recreation Area
(34.0022°N, 84.2416°W)
Time: 08:40:38
(UTC-04:00)

Daily predictions for brighter satellites

Satellite Brightness Start Highest point End
(mag) Time Altitude Azimuth Time Altitude Azimuth Time Altitude Azimuth
Cosmos 1515 Rocket 3.9 21:20:30 10° N 21:24:46 47° E 21:29:00 10° SSE
Cosmos 1833 4.2 21:19:43 10° SSW 21:25:24 74° ESE 21:31:04 10° NNE
Cosmos 1437 3.8 21:31:48 10° SSE 21:34:39 28° E 21:37:31 10° NNE
Hubble Space Telescope 2.6 21:32:39 10° SSW 21:34:56 14° SSE 21:36:49 11° SE
ATLAS 2AS CENTAUR R/B 4.4 21:33:06 10° SE 21:36:13 13° ESE 21:39:25 10° ENE
H-2A R/B 3.2 21:32:42 10° S 21:36:31 64° W 21:40:18 10° NNW
Cosmos 1151 Rocket 3.7 21:33:31 10° NNE 21:37:31 36° E 21:41:22 11° SE
USA 186 2.7 21:40:59 10° SSW 21:43:00 30° W 21:45:05 10° NNW
ERS-1 Rocket 3.0 21:40:05 10° SSE 21:45:04 68° ENE 21:50:04 10° N
COSMOS 2428 4.1 21:41:09 10° N 21:45:39 24° ENE 21:49:36 12° ESE
Cosmos 1437 Rocket 2.7 21:42:39 10° N 21:46:29 70° E 21:50:20 10° SSE
Envisat 3.6 21:42:21 11° SE 21:46:49 40° ENE 21:51:32 10° N
Cosmos 2266 Rocket 4.0 21:40:56 10° S 21:47:10 68° E 21:53:20 10° NNE
Cosmos 1939 Rocket 3.3 21:44:35 12° SE 21:47:58 44° ENE 21:51:41 10° N
Sakura Rocket 4.4 21:45:53 10° SSW 21:48:33 16° SSE 21:49:37 14° SE
ERBS 4.3 21:49:50 14° ESE 21:49:50 14° ESE 21:50:59 10° E
Cosmos 2219 Rocket 4.2 21:47:13 10° NNE 21:49:25 12° NE 21:51:36 10° ENE
Cosmos 1553 Rocket 4.4 21:49:51 10° NNW 21:56:11 67° W 22:02:23 10° S
ATLAS CENTAUR R/B 4.0 21:54:49 10° WNW 21:57:05 14° WSW 21:59:15 10° SW
NOSS 3-1 (C) 3.3 21:53:39 10° SSW 21:59:20 69° ESE 22:05:34 10° NE
Cosmos 2315 Rocket 4.4 21:54:57 10° N 22:00:50 44° E 22:05:19 17° SE
OTV 4 0.9 22:00:03 10° SW 22:02:50 38° SSE 22:04:07 24° ESE
CZ-3A R/B 4.4 13:34:50 10° SSW 22:02:52 51° S 22:07:48 17° ESE
Cosmos 1726 3.9 22:00:24 10° NE 22:02:53 17° ENE 22:03:46 16° E
OAO 2 Rocket 3.4 21:57:45 10° WSW 22:03:01 67° SSE 22:08:18 10° E
CZ-4 SHROUD 4.3 22:02:06 22° ESE 22:03:13 28° ENE 22:05:58 10° NNE
Cosmos 2112 Rocket 4.3 21:59:54 10° N 22:05:02 53° ENE 22:08:34 20° SE
Cosmos 1937 Rocket 4.5 22:02:33 18° SE 22:05:12 26° E 22:09:29 10° NE
ALOS 4.1 22:01:20 10° SSW 22:05:22 29° W 22:09:26 10° NW
H-2A R/B 2.1 22:02:12 14° SSE 22:06:07 82° ENE 22:10:39 10° N
Cosmos 2298 Rocket 4.1 22:06:23 10° S 22:11:32 54° ESE 22:16:43 10° NNE
Cosmos 1707 Rocket 4.5 22:07:38 10° NNE 22:11:32 31° E 22:13:15 23° ESE
Cosmos 1666 Rocket 4.2 22:09:25 22° SE 22:11:37 36° E 22:15:39 10° NNE
Cosmos 1328 3.7 22:09:01 10° S 22:12:57 85° E 22:16:55 10° N
Cosmos 2219 3.3 22:07:38 10° SSW 22:13:23 82° WNW 22:19:10 10° NNE
Tiangong 1 2.5 22:11:14 10° W 22:14:11 38° NNW 22:17:06 10° NE
Meteor 1-4 Rocket 4.3 22:18:16 10° NNE 22:20:54 18° ENE 22:21:09 18° E
Cosmos 2237 Rocket 4.1 22:19:17 10° NNE 22:22:38 16° NE 22:25:15 12° E
Cosmos 2322 Rocket 4.2 22:20:49 10° NW 22:25:04 22° W 22:29:19 10° SSW
DELTA 2 R/B (1) 3.5 22:19:58 10° WNW 22:25:33 84° SSW 22:28:39 27° ESE
Cosmos 2322 3.8 22:20:55 10° NNW 22:26:37 73° WSW 22:30:31 21° S
MetOp-B 4.2 22:23:58 25° SSE 22:27:04 63° ENE 22:32:22 10° N
Cosmos 1271 Rocket 4.2 22:25:14 10° NNE 22:28:18 22° ENE 22:28:33 22° E
Cosmos 1703 4.1 22:32:28 31° E 22:32:32 31° E 22:36:01 10° NNE
CZ-4B R/B 3.5 22:27:37 10° NNE 22:32:51 65° ESE 22:36:13 21° S
SL-14 R/B 3.2 22:31:35 34° SSE 22:33:09 65° E 22:37:07 10° NNE
Cosmos 2360 Rocket 2.6 22:28:03 10° NNW 22:33:38 61° WSW 22:37:25 21° S
SL-16 R/B 4.4 22:33:27 10° WNW 22:37:18 19° W 22:41:09 10° SW
H-2A R/B 3.5 22:36:57 20° E 22:38:31 23° ENE 22:42:40 10° NNE
PSLV R/B 3.3 22:38:58 50° SSW 22:39:34 66° W 22:42:36 10° NNW
Cosmos 1626 4.2 22:41:26 16° ENE 22:41:26 16° ENE 22:42:52 10° NE
Meteor 1-27 4.2 22:35:00 10° N 22:40:39 71° E 22:43:17 32° SSE
Cosmos 1680 Rocket 4.0 22:36:01 10° NNW 22:41:09 56° WSW 22:44:23 22° S
SPOT 5 3.0 22:42:00 27° S 22:44:26 65° WSW 22:49:11 10° NNW
Delta 2 Rocket 3.0 22:44:32 10° W 22:48:07 69° N 22:48:40 56° ENE
Cosmos 1898 Rocket 3.6 22:44:28 10° SSW 22:49:38 75° WNW 22:54:51 10° NNE
SPOT 1/Viking Rocket 3.5 22:48:49 39° SSE 22:50:45 73° ENE 22:55:54 10° N
YAOGAN 6 2.5 22:50:10 60° S 22:50:45 84° WSW 22:54:22 10° NNW
Cosmos 2227 Rocket 2.2 22:55:43 38° SSE 22:57:41 58° ESE 23:03:14 10° NNE
Cosmos 2058 4.3 22:54:57 13° SW 22:58:16 35° W 23:02:03 10° NNW
Cosmos 1300 3.3 22:59:17 10° NNW 23:03:02 52° W 23:03:49 43° SW
NOSS 3-1 (A) 4.2 22:58:21 10° SW 23:04:00 51° NW 23:10:12 10° NNE
Sich 1 3.6 23:03:04 28° SSW 23:05:09 56° W 23:09:29 10° N
CARTOSAT-1 4.5 23:08:07 34° ENE 23:08:07 34° ENE 23:11:53 10° N
Cosmos 292 Rocket 3.7 23:03:18 10° NNW 23:08:03 69° ENE 23:08:39 61° ESE
Cosmos 2242 Rocket 3.5 23:04:15 10° N 23:08:45 86° E 23:09:21 67° SSE
Cosmos 1633 Rocket 3.7 23:08:22 30° SW 23:10:15 51° W 23:14:32 10° N
Cosmos 1862 Rocket 4.4 23:06:29 10° NNE 23:10:02 35° ENE 23:10:02 35° ENE
Landsat 7 3.9 23:10:20 53° E 23:10:47 55° ENE 23:15:27 10° N
COSMOS 2455 4.5 23:07:34 10° N 23:12:02 21° NE 23:14:03 18° ENE
Hubble Space Telescope 3.3 23:12:00 10° SW 23:12:15 11° SW 23:12:15 11° SW
SL-16 R/B 3.9 23:12:57 10° NNE 23:16:58 19° ENE 23:18:12 18° ENE
Cosmos 2333 Rocket 2.5 23:12:45 10° N 23:18:23 53° ENE 23:19:24 47° E
FALCON 9 R/B 4.0 22:52:01 10° W 23:21:56 87° N 23:27:16 22° E
ARGOS 3.4 23:22:16 46° SSW 23:23:45 65° WSW 23:29:07 10° NNW
Cosmos 2297 Rocket 2.1 23:23:48 61° SSE 23:24:31 68° ESE 23:30:08 10° NNE
DELTA 2 DEB (DPAF) 4.0 23:25:18 87° ESE 23:25:21 88° E 23:29:52 10° NNW
ERBS 4.1 23:22:41 13° WSW 23:25:28 33° NW 23:28:40 10° NNE
Cosmos 1455 3.2 23:21:46 10° N 23:24:28 39° NNE 23:24:28 39° NNE
ATLAS 2AS CENTAUR R/B 2.8 23:19:45 16° SSW 23:25:54 85° ESE 23:33:54 10° NNE
Terra 2.0 23:26:42 56° ENE 23:26:42 56° ENE 23:31:18 10° N
COSMOS 2428 3.6 23:24:43 10° NW 23:30:01 41° WSW 23:31:38 34° SW
DMSP B5D2-2 3.9 23:28:34 10° NNE 23:33:48 80° ESE 23:34:05 76° SE
Cosmos 2219 Rocket 2.0 23:28:25 10° NNW 23:34:02 83° WSW 23:34:43 69° S
Spot 4 4.2 23:34:28 51° ENE 23:34:28 51° ENE 23:38:58 10° N
IGS 5A 4.0 23:36:25 51° NNE 23:36:25 51° NNE 23:39:45 10° N
Cosmos 1726 4.1 23:35:11 10° NW 23:38:11 23° W 23:38:27 22° W
SL-08 RB Rocket 4.3 23:38:57 45° WSW 23:39:08 45° W 23:43:27 10° NNW
ATLAS 3B R/B 3.5 23:37:06 10° NNW 23:43:28 37° NE 23:45:16 32° E
OAO 2 Rocket 3.4 23:42:34 10° W 23:47:54 80° N 23:48:05 78° NNE
Tiangong 1 4.1 23:49:13 10° NW 23:51:01 16° NNW 23:51:01 16° NNW
Cosmos 1869 4.3 23:47:41 10° N 23:50:34 45° NNW 23:50:34 45° NNW
